User: anonymous   Login
Location: Unspecified
(0.0000°N, 0.0000°E)
Time: 07:19:32
(UTC+00:00)
Language:

MetOp-A - Orbit

View from above orbital plane
View from above orbital plane
View from above satellite
View from above satellite

Ground track
Ground track

The orbit data is extracted from the following two-line orbital elements,

1 29499U 06044A   22270.87228979  .00001202  00000-0  16645-3 0  9992
2 29499  98.4413 318.6978 0198306  47.1721 131.5575 14.67415202825694
Epoch (UTC): 27 September 2022 20:56:05
Eccentricity: 0.0198306
inclination: 98.4413°
perigee height: 529 km
apogee height: 809 km
right ascension of ascending node: 318.6978°
argument of perigee: 47.1721°
revolutions per day: 14.67415202
mean anomaly at epoch: 131.5575°
orbit number at epoch: 82569

The dashed part of the orbit path shows where the satellite is in the earth's shadow,  

DLR